Weather History for VOMM - March, 2013

Change the Weather History Date:

Sunday, March 10, 2013

  Actual Average Record
Temperature  
Mean Temperature 82 °F -  
Max Temperature 91 °F 90 °F 93 °F (1998)
Min Temperature 74 °F 75 °F 71 °F (1997)
Cooling Degree Days 18    
Growing Degree Days 32 (Base 50)    
Moisture  
Dew Point 75 °F    
Average Humidity 78    
Maximum Humidity 100    
Minimum Humidity 54    
Precipitation  
Precipitation 0.00 in 0.01 in - ()
Sea Level Pressure  
Sea Level Pressure 29.84 in    
Wind  
Wind Speed 4 mph ()    
Max Wind Speed 14 mph    
Max Gust Speed -    
Visibility 3.7 miles    
Events      
Averages and records for this station are not official NWS values.
T = Trace of Precipitation, MM = Missing Value Source: Averaged Metar Reports

Daily Weather History Graph

Daily Weather History Graph

Search for Another Location

Airport or City:

Trip Planner

Search our weather history database for the weather conditions in past years. The results will help you decide how hot, cold, wet, or windy it might be!

Date:

Astronomy

Mar. 10, 2013 Rise Set
Actual Time 6:19 AM IST 6:19 PM IST
Civil Twilight 5:58 AM IST 6:40 PM IST
Nautical Twilight 5:34 AM IST 7:05 PM IST
Astronomical Twilight 5:09 AM IST 7:29 PM IST
Moon 4:51 AM IST (3/10) 5:02 PM IST (3/10)
Length of Visible Light 12h 41m
Length of Day
11h 59m
Waning Crescent, 3% of the Moon is Illuminated
Mar 10
Waning Crescent
Mar 12
New
Mar 19
First Quarter
Mar 27
Full
Apr 3
Last Quarter

Hourly Weather History & Observations

Time (IST) Temp. Heat Index Dew Point Humidity Pressure Visibility Wind Dir Wind Speed Gust Speed Precip Events Conditions
12:10 AM 80.6 °F 86.2 °F 75.2 °F 84% 29.89 in 3.7 mi South 3.5 mph - N/A   Partly Cloudy
12:40 AM 80.6 °F 86.2 °F 75.2 °F 84% 29.86 in 3.7 mi SSW 3.5 mph - N/A   Partly Cloudy
1:10 AM 78.8 °F - 75.2 °F 89% 29.86 in 3.7 mi SW 2.3 mph - N/A   Partly Cloudy
1:40 AM 78.8 °F - 75.2 °F 89% 29.83 in 3.7 mi Calm Calm - N/A   Partly Cloudy
2:10 AM 77.0 °F - 75.2 °F 94% 29.83 in 3.7 mi SW 3.5 mph - N/A   Partly Cloudy
2:30 AM 77 °F - 75 °F 92% 29.86 in 2 mi Calm Calm - -   Scattered Clouds
2:40 AM 77.0 °F - 73.4 °F 89% 29.80 in 3.7 mi North 2.3 mph - N/A   Partly Cloudy
3:10 AM 77.0 °F - 75.2 °F 94% 29.80 in 2.5 mi West 3.5 mph - N/A   Haze
3:40 AM 77.0 °F - 75.2 °F 94% 29.80 in 2.5 mi Calm Calm - N/A   Haze
4:10 AM 77.0 °F - 75.2 °F 94% 29.80 in 2.5 mi Calm Calm - N/A   Haze
4:40 AM 77.0 °F - 75.2 °F 94% 29.83 in 2.5 mi West 2.3 mph - N/A   Haze
5:10 AM 77.0 °F - 75.2 °F 94% 29.83 in 2.5 mi SSW 3.5 mph - N/A   Haze
5:30 AM 77 °F - 75 °F 92% 29.86 in 2 mi Calm Calm - -   Haze
5:40 AM 77.0 °F - 75.2 °F 94% 29.83 in 2.5 mi WSW 2.3 mph - N/A   Haze
6:10 AM 77.0 °F - 75.2 °F 94% 29.83 in 2.2 mi SSW 2.3 mph - N/A   Haze
6:40 AM 77.0 °F - 75.2 °F 94% 29.86 in 1.2 mi WSW 4.6 mph - N/A   Partly Cloudy
7:10 AM 77.0 °F - 77.0 °F 100% 29.86 in 1.2 mi WSW 3.5 mph - N/A   Partly Cloudy
7:40 AM 78.8 °F - 77.0 °F 94% 29.89 in 1.6 mi WSW 4.6 mph - N/A   Partly Cloudy
8:30 AM 82 °F - 76 °F 77% 29.93 in 2 mi Calm Calm - -   Haze
8:40 AM 80.6 °F 87.1 °F 77.0 °F 89% 29.89 in 2.5 mi West 4.6 mph - N/A   Haze
9:10 AM 82.4 °F 89.5 °F 75.2 °F 79% 29.89 in 2.5 mi SSW 6.9 mph - N/A   Haze
10:10 AM 86.0 °F 95.1 °F 75.2 °F 70% 29.89 in 3.7 mi South 5.8 mph - N/A   Scattered Clouds
10:40 AM 86.0 °F 95.1 °F 75.2 °F 70% 29.89 in 5.0 mi SW 4.6 mph - N/A   Scattered Clouds
11:10 AM 87.8 °F 97.6 °F 75.2 °F 66% 29.89 in 5.0 mi SSW 5.8 mph - N/A   Scattered Clouds
11:30 AM 89 °F - 74 °F 54% 29.92 in 6 mi SE 4.6 mph - -   Partly Cloudy
11:40 AM 87.8 °F 97.6 °F 75.2 °F 66% 29.89 in 5.0 mi East 3.5 mph - N/A   Scattered Clouds
12:10 PM 89.6 °F 99.8 °F 75.2 °F 62% 29.86 in 5.0 mi SE 4.6 mph - N/A   Scattered Clouds
12:40 PM 89.6 °F 99.8 °F 75.2 °F 62% 29.83 in 5.0 mi ESE 11.5 mph - N/A   Partly Cloudy
1:10 PM 89.6 °F 99.8 °F 75.2 °F 62% 29.83 in 5.0 mi ESE 13.8 mph - N/A   Partly Cloudy
1:40 PM 87.8 °F 95.6 °F 73.4 °F 62% 29.80 in 5.0 mi SSE 11.5 mph - N/A   Partly Cloudy
2:10 PM 89.6 °F 99.8 °F 75.2 °F 62% 29.80 in 6.2 mi SE 11.5 mph - N/A   Partly Cloudy
2:30 PM 90 °F - 76 °F 54% 29.82 in 6 mi SE 5.8 mph - -   Clear
2:40 PM 89.6 °F 99.8 °F 75.2 °F 62% 29.77 in 6.2 mi ESE 9.2 mph - N/A   Partly Cloudy
3:10 PM 89.6 °F 99.8 °F 75.2 °F 62% 29.77 in 6.2 mi ESE 11.5 mph - N/A   Partly Cloudy
3:40 PM 89.6 °F 98.2 °F 73.4 °F 59% 29.77 in - ESE 11.5 mph - N/A   Clear
4:10 PM 87.8 °F 95.6 °F 73.4 °F 62% 29.77 in - ESE 9.2 mph - N/A   Clear
4:40 PM 87.8 °F 95.6 °F 73.4 °F 62% 29.77 in - SE 9.2 mph - N/A   Clear
5:10 PM 87.8 °F 95.6 °F 73.4 °F 62% 29.77 in 5.0 mi ESE 11.5 mph - N/A   Unknown
5:30 PM 86 °F - 75 °F 63% 29.80 in 6 mi SE 3.5 mph - -   Clear
5:40 PM 86.0 °F 93.4 °F 73.4 °F 66% 29.77 in 5.0 mi ESE 9.2 mph - N/A   Unknown
6:10 PM 84.2 °F 90.9 °F 73.4 °F 70% 29.80 in 3.7 mi SE 8.1 mph - N/A   Unknown
6:40 PM 82.4 °F 89.5 °F 75.2 °F 79% 29.80 in 3.7 mi SSE 6.9 mph - N/A   Unknown
7:10 PM 82.4 °F 89.5 °F 75.2 °F 79% 29.80 in 3.7 mi SE 6.9 mph - N/A   Unknown
7:40 PM 82.4 °F 89.5 °F 75.2 °F 79% 29.83 in 3.7 mi SE 9.2 mph - N/A   Partly Cloudy
8:10 PM 82.4 °F 89.5 °F 75.2 °F 79% 29.83 in 3.7 mi South 6.9 mph - N/A   Partly Cloudy
8:30 PM 81 °F - 76 °F 79% 29.87 in 2 mi South 3.5 mph - -   Clear
8:40 PM 82.4 °F 89.5 °F 75.2 °F 79% 29.86 in 3.7 mi SSE 8.1 mph - N/A   Partly Cloudy
9:10 PM 80.6 °F 86.2 °F 75.2 °F 84% 29.86 in 3.7 mi South 6.9 mph - N/A   Partly Cloudy
9:40 PM 80.6 °F 86.2 °F 75.2 °F 84% 29.89 in 3.7 mi SSE 6.9 mph - N/A   Partly Cloudy
10:10 PM 80.6 °F 86.2 °F 75.2 °F 84% 29.89 in 3.7 mi SSE 4.6 mph - N/A   Partly Cloudy
10:40 PM 80.6 °F 86.2 °F 75.2 °F 84% 29.89 in 3.7 mi SE 3.5 mph - N/A   Partly Cloudy
11:10 PM 80.6 °F 86.2 °F 75.2 °F 84% 29.89 in 3.7 mi SE 3.5 mph - N/A   Unknown
11:30 PM 79 °F - 76 °F 86% 29.91 in 2 mi SSE 3.5 mph - -  
11:40 PM 80.6 °F 86.2 °F 75.2 °F 84% 29.86 in 3.7 mi SE 5.8 mph - N/A   Unknown